Flag for Slovakia Weather past 2 weeks in Piešťany, Slovakia

Now
63 °F

Light rain. More clouds than sun.


Feels Like: 63 °F
Forecast: 49 / 62 °F
Wind: 5 mph from Northwest

Location: Piestany

Current Time: Aug 23, 2014 at 8:10:25 PM

Latest Report: Aug 23, 2014 at 7:30 PM


Visibility: N/A

Pressure: 29.92 "Hg

Humidity: 88%

Dew point: 59 °F

Location of PiešťanyLocation

Historic Weather in Piešťany — Graph

°F

Piešťany temperature yesterday

Maximum temperature yesterday: 70 °F (at 5:30 PM)
Minimum temperature yesterday: 48 °F (at 1:00 AM)
Average temperature yesterday: 58 °F

Past Weeks' High & Low Weather Summary

 TemperatureHumidityPressure
High86 °F (Aug 11, 1:30 PM)94% (Aug 9, 3:00 AM)30.09 "Hg (Aug 9, 3:00 AM)
Low46 °F (Aug 18, 5:30 AM)39% (Aug 18, 4:30 PM)29.62 "Hg (Aug 13, 10:30 PM)
Average65 °F74%29.95 "Hg
* Reported Aug 8 7:00 PM — Aug 23 7:00 PM, Piešťany, Weather by CustomWeather, © 2014

Note: Actual official high and low records may vary slightly from our data, if they occured in-between our weather recording intervals... More about our weather records

Advertising

Piešťany weather history for previous 24 hours

 ConditionsComfort  
Time TempWeatherWind HumidityBarometerVisibility
7:00 PM
Aug 23
63 °FLight rain. More clouds than sun.2 mph83%29.92 "HgN/A
6:30 PM63 °FLight rain. More clouds than sun.5 mph83%29.92 "HgN/A
6:00 PM64 °FLight rain. More clouds than sun.10 mph78%29.92 "HgN/A
5:30 PM66 °FLight rain. More clouds than sun.9 mph68%29.92 "HgN/A
5:00 PM70 °FPartly sunny.9 mph64%29.92 "HgN/A
4:30 PM72 °FScattered clouds.9 mph61%29.92 "HgN/A
4:00 PM73 °FScattered clouds.7 mph57%29.92 "HgN/A
3:30 PM73 °FScattered clouds.8 mph57%29.95 "HgN/A
3:00 PM73 °FScattered clouds.3 mph57%29.95 "HgN/A
2:30 PM73 °FScattered clouds.5 mph61%29.95 "HgN/A
2:00 PM72 °FScattered clouds.6 mph65%29.98 "HgN/A
1:30 PM72 °FScattered clouds.9 mph65%29.98 "HgN/A
1:00 PM72 °FScattered clouds.6 mph65%29.98 "HgN/A
12:30 PM73 °FBroken clouds.3 mph61%29.98 "HgN/A
12:00 PM72 °FScattered clouds.3 mph61%30.01 "HgN/A
11:30 AM70 °FScattered clouds.5 mph69%30.01 "HgN/A
11:00 AM68 °FScattered clouds.6 mph69%30.01 "HgN/A
10:30 AM68 °FPassing clouds.6 mph69%30.01 "HgN/A
10:00 AM68 °FSunny.7 mph69%30.01 "Hg10 mi
9:30 AM66 °FSunny.2 mph73%30.01 "Hg10 mi
9:00 AM63 °FSunny.2 mph83%30.01 "Hg10 mi
8:30 AM61 °FSunny.5 mph88%30.01 "Hg10 mi
8:00 AM59 °FScattered clouds.1 mph94%30.01 "HgN/A
7:30 AM57 °FScattered clouds.3 mph94%30.01 "HgN/A
7:00 AM55 °FSunny.7 mph94%30.01 "Hg10 mi
6:30 AM55 °FClear.5 mph94%30.01 "Hg10 mi
6:00 AM55 °FClear.7 mph88%30.01 "Hg10 mi
5:30 AM55 °FCool.2 mph88%29.98 "HgN/A
4:30 AM59 °FPartly cloudy.1 mph88%30.01 "HgN/A
4:00 AM59 °FMostly cloudy.1 mph88%30.01 "HgN/A
3:30 AM57 °FPassing clouds.7 mph94%30.01 "HgN/A
3:00 AM59 °FOvercast.1 mph88%29.98 "HgN/A
2:30 AM57 °FOvercast.1 mph88%30.01 "HgN/A
2:00 AM57 °FMostly cloudy.5 mph88%30.01 "HgN/A
1:30 AM57 °FMostly cloudy.5 mph94%30.01 "HgN/A
1:00 AM57 °FMostly cloudy.3 mph94%30.01 "HgN/A
12:30 AM57 °FOvercast.2 mph88%30.01 "HgN/A
12:00 AM55 °FOvercast.5 mph94%30.01 "HgN/A
11:30 PM
Aug 22
55 °FPartly cloudy.3 mph94%30.01 "HgN/A
11:00 PM57 °FPassing clouds.2 mph82%30.01 "HgN/A
10:30 PM59 °FCool.2 mph77%30.01 "HgN/A
10:00 PM61 °FClear.1 mph83%30.01 "Hg10 mi
9:30 PM61 °FClear.5 mph83%30.01 "Hg10 mi
9:00 PM59 °FClear.5 mph82%30.01 "Hg10 mi
8:30 PM61 °FSunny.7 mph77%30.01 "Hg10 mi
8:00 PM64 °FSunny.5 mph68%30.01 "Hg10 mi
Weather by CustomWeather, © 2014

See weather overviewHow to use our weather pages